Hurlburt Field, FL

6:36 PM CDT on April 24, 2017 (GMT -0500)
Hurlburt

Weather History for KHRT - April, 2013

Change the Weather History Date:

Tuesday, April 23, 2013

  Actual Average Record
Temperature  
Mean Temperature 68 °F -  
Max Temperature 73 °F 74 °F 83 °F (2016)
Min Temperature 64 °F 58 °F 49 °F (2012)
Cooling Degree Days 3    
Growing Degree Days 18 (Base 50)    
Moisture  
Dew Point 62 °F    
Average Humidity 82    
Maximum Humidity 100    
Minimum Humidity 63    
Precipitation  
Precipitation 0.00 in - - ()
Sea Level Pressure  
Sea Level Pressure 30.10 in    
Wind  
Wind Speed 10 mph (SE)    
Max Wind Speed 16 mph    
Max Gust Speed 23 mph    
Visibility 10 miles    
Events      
Averages and records for this station are not official NWS values.
T = Trace of Precipitation, MM = Missing Value Source: NWS Daily Summary

Daily Weather History Graph

Daily Weather History Graph

Search for Another Location

Airport or City:

Trip Planner

Search our weather history database for the weather conditions in past years. The results will help you decide how hot, cold, wet, or windy it might be!

Date:

Astronomy

Apr. 23, 2013 Rise Set
Actual Time 6:10 AM CDT 7:19 PM CDT
Civil Twilight 5:45 AM CDT 7:44 PM CDT
Nautical Twilight 5:15 AM CDT 8:14 PM CDT
Astronomical Twilight 4:45 AM CDT 8:45 PM CDT
Moon 5:21 PM CDT (4/23) 4:28 AM CDT (4/23)
Length of Visible Light 13h 59m
Length of Day
13h 09m
Waxing Gibbous, 94% of the Moon is Illuminated
Apr 23
Waxing Gibbous
Apr 25
Full
May 2
Last Quarter
May 9
New
May 17
First Quarter

Hourly Weather History & Observations

Time (CDT) Temp. Dew Point Humidity Pressure Visibility Wind Dir Wind Speed Gust Speed Precip Events Conditions
12:58 AM 64.8 °F 61.2 °F 88% 30.11 in 10.0 mi ESE 6.9 mph - N/A   Clear
1:58 AM 65.3 °F 63.0 °F 92% 30.09 in 10.0 mi SE 11.5 mph - N/A   Mostly Cloudy
2:43 AM 66.2 °F 62.6 °F 88% 30.07 in 10.0 mi SE 12.7 mph 20.7 mph N/A   Mostly Cloudy
2:58 AM 66.9 °F 63.0 °F 87% 30.08 in 10.0 mi SE 12.7 mph - N/A   Overcast
3:58 AM 67.1 °F 63.5 °F 88% 30.08 in 10.0 mi SE 11.5 mph - N/A   Overcast
4:48 AM 66.2 °F 62.6 °F 88% 30.08 in 10.0 mi SE 11.5 mph - N/A   Overcast
4:58 AM 66.7 °F 62.8 °F 87% 30.09 in 10.0 mi SE 10.4 mph - N/A   Overcast
5:08 AM 66.2 °F 62.6 °F 88% 30.08 in 10.0 mi ESE 10.4 mph - N/A   Overcast
5:58 AM 66.2 °F 62.8 °F 89% 30.10 in 10.0 mi ESE 13.8 mph - N/A   Mostly Cloudy
6:03 AM 66.2 °F 62.6 °F 88% 30.09 in 10.0 mi ESE 13.8 mph - N/A   Mostly Cloudy
6:21 AM 66.2 °F 62.6 °F 88% 30.09 in 10.0 mi SE 16.1 mph 23.0 mph N/A   Overcast
6:47 AM 66.2 °F 60.8 °F 83% 30.10 in 10.0 mi ESE 10.4 mph - N/A   Overcast
6:58 AM 66.4 °F 61.2 °F 83% 30.12 in 10.0 mi ESE 8.1 mph - N/A   Overcast
7:58 AM 66.2 °F 61.0 °F 83% 30.13 in 10.0 mi ESE 6.9 mph - N/A   Overcast
8:58 AM 66.4 °F 60.4 °F 81% 30.14 in 10.0 mi East 8.1 mph - N/A   Overcast
9:58 AM 68.7 °F 60.1 °F 74% 30.15 in 10.0 mi East 9.2 mph - N/A   Overcast
10:13 AM 69.8 °F 60.8 °F 73% 30.14 in 10.0 mi East 13.8 mph 19.6 mph N/A   Mostly Cloudy
10:58 AM 70.9 °F 59.0 °F 66% 30.15 in 10.0 mi East 13.8 mph 19.6 mph N/A   Mostly Cloudy
11:24 AM 71.6 °F 59.0 °F 64% 30.14 in 10.0 mi SE 15.0 mph 20.7 mph N/A   Mostly Cloudy
11:58 AM 71.1 °F 57.7 °F 63% 30.14 in 10.0 mi East 13.8 mph 20.7 mph N/A   Overcast
12:58 PM 71.8 °F 58.5 °F 63% 30.12 in 10.0 mi SE 13.8 mph - N/A   Overcast
1:58 PM 72.0 °F 60.1 °F 66% 30.12 in 10.0 mi SE 13.8 mph - N/A   Overcast
2:58 PM 72.3 °F 61.2 °F 68% 30.11 in 10.0 mi SSE 12.7 mph - N/A   Clear
3:58 PM 72.1 °F 62.4 °F 71% 30.09 in 10.0 mi SSE 16.1 mph - N/A   Clear
4:58 PM 72.0 °F 63.0 °F 73% 30.08 in 10.0 mi South 13.8 mph - N/A   Clear
5:58 PM 70.5 °F 62.8 °F 76% 30.07 in 10.0 mi SSE 9.2 mph - N/A   Clear
6:58 PM 69.1 °F 64.0 °F 84% 30.07 in 10.0 mi SSE 8.1 mph - N/A   Clear
7:58 PM 67.6 °F 64.9 °F 91% 30.09 in 10.0 mi SE 3.5 mph - N/A   Clear
8:58 PM 67.1 °F 65.7 °F 95% 30.10 in 9.0 mi East 2.3 mph - N/A   Clear
9:58 PM 66.4 °F 66.2 °F 99% 30.10 in 10.0 mi Calm Calm - N/A   Clear
10:58 PM 66.7 °F 66.7 °F 100% 30.10 in 10.0 mi Calm Calm - N/A   Clear
11:58 PM 66.7 °F 66.7 °F 100% 30.09 in 10.0 mi SE 2.3 mph - N/A   Clear